Flag for Germany Weather past 2 weeks in Haan, North Rhine-Westphalia, Germany

Now
57 °F

Clear.


Feels Like: 56 °F
Forecast: 47 / 70 °F
Wind: 7 mph from East

Location: Duesseldorf


UV Index: 3 (Moderate)

Visibility: 10 mi


Pressure: 30.09 "Hg

Humidity: 72%

Dew point: 48 °F

Location of HaanLocation

Historic Weather in Haan

°F

Haan temperature yesterday

Maximum temperature yesterday: 66 °F (at 4:50 PM)
Minimum temperature yesterday: 45 °F (at 3:50 AM)
Average temperature yesterday: 56 °F

Past Weeks' High & Low Weather Summary

 TemperatureHumidityPressure
High72 °F (Apr 20, 1:50 PM)94% (Apr 22, 6:50 AM)30.45 "Hg (Apr 22, 6:50 AM)
Low30 °F (Apr 16, 4:50 AM)24% (Apr 17, 4:50 PM)29.62 "Hg (Apr 21, 5:20 PM)
Average52 °F65%30.05 "Hg
* Reported Apr 8 9:20 PM — Apr 23 9:20 PM, Haan, Weather by CustomWeather, © 2014

Note: Actual official high and low records may vary slightly from our data, if they occured in-between our weather recording intervals... More about our weather records

Advertising

Historic Weather Conditions — Data for Previous 24 hours

 ConditionsComfort  
Time TempWeatherWind HumidityBarometerVisibility
9:20 PM
Apr 23
59 °FScattered clouds.8 mph68%30.09 "HgN/A
8:50 PM63 °FScattered clouds.7 mph59%30.07 "HgN/A
8:20 PM64 °FScattered clouds.9 mph56%30.07 "HgN/A
7:50 PM68 °FPassing clouds.5 mph46%30.07 "HgN/A
7:20 PM68 °FPassing clouds.6 mph43%30.07 "HgN/A
6:50 PM72 °FPassing clouds.2 mph33%30.04 "HgN/A
6:20 PM72 °FPassing clouds.5 mph33%30.07 "HgN/A
5:50 PM72 °FPassing clouds.3 mph33%30.04 "HgN/A
5:20 PM72 °FPassing clouds.5 mph33%30.07 "HgN/A
4:50 PM70 °FPassing clouds.3 mph38%30.07 "HgN/A
4:20 PM68 °FPassing clouds.7 mph43%30.07 "HgN/A
3:50 PM70 °FPassing clouds.6 mph40%30.07 "HgN/A
3:20 PM68 °FScattered clouds.7 mph43%30.07 "HgN/A
2:50 PM70 °FScattered clouds.7 mph38%30.07 "HgN/A
2:20 PM70 °FPassing clouds.2 mph38%30.07 "HgN/A
1:50 PM68 °FPassing clouds.3 mph43%30.09 "HgN/A
1:20 PM68 °FPassing clouds.1 mph46%30.09 "HgN/A
12:50 PM66 °FPassing clouds.3 mph49%30.09 "HgN/A
12:20 PM66 °FPassing clouds.3 mph52%30.09 "HgN/A
11:50 AM64 °FSunny.3 mph56%30.09 "Hg10 mi
11:20 AM63 °FSunny.2 mph59%30.09 "Hg10 mi
10:50 AM61 °FSunny.3 mph68%30.09 "Hg10 mi
10:20 AM59 °FSunny.5 mph68%30.09 "Hg10 mi
9:50 AM57 °FSunny.6 mph72%30.09 "Hg10 mi
9:20 AM55 °FSunny.5 mph77%30.09 "Hg10 mi
8:50 AM54 °FSunny.6 mph82%30.07 "Hg10 mi
8:20 AM52 °FBroken clouds.5 mph82%30.07 "HgN/A
7:50 AM50 °FBroken clouds.3 mph94%30.07 "HgN/A
7:20 AM48 °FClear.2 mph87%30.07 "Hg10 mi
6:50 AM46 °FClear.6 mph93%30.07 "Hg10 mi
6:20 AM46 °FFog.1 mph87%30.07 "HgN/A
5:50 AM46 °FFog.2 mph87%30.07 "HgN/A
5:20 AM46 °FFog.2 mph93%30.04 "HgN/A
4:50 AM46 °FFog.1 mph93%30.04 "HgN/A
4:20 AM48 °FFog.2 mph87%30.04 "HgN/A
3:50 AM48 °FClear.3 mph87%30.04 "Hg10 mi
3:20 AM50 °FClear.2 mph88%30.04 "Hg10 mi
2:50 AM52 °FClear.3 mph82%30.04 "Hg10 mi
2:20 AM52 °FClear.3 mph82%30.04 "Hg10 mi
1:50 AM52 °FClear.2 mph82%30.04 "Hg10 mi
1:20 AM52 °FClear.2 mph82%30.01 "Hg10 mi
12:50 AM52 °FClear.2 mph82%30.01 "Hg10 mi
12:20 AM54 °FClear.3 mph77%30.01 "Hg10 mi
11:50 PM
Apr 22
54 °FClear.3 mph77%30.01 "Hg10 mi
11:20 PM54 °FClear.3 mph77%30.01 "Hg10 mi
10:50 PM52 °FClear.3 mph82%29.98 "Hg10 mi
10:20 PM54 °FClear.1 mph72%29.98 "Hg10 mi
Weather by CustomWeather, © 2014

See weather overview